Weather History for KFHR - October, 2012

Change the Weather History Date:

Friday, October 19, 2012

  Actual Average Record
Temperature  
Mean Temperature 50 °F -  
Max Temperature 55 °F 54 °F 70 °F (2014)
Min Temperature 45 °F 41 °F 35 °F (2008)
Degree Days  
Heating Degree Days 16    
Moisture  
Dew Point 45 °F    
Average Humidity 79    
Maximum Humidity 94    
Minimum Humidity 59    
Precipitation  
Precipitation 0.01 in - - ()
Sea Level Pressure  
Sea Level Pressure 29.75 in    
Wind  
Wind Speed 8 mph (SSW)    
Max Wind Speed 12 mph    
Max Gust Speed 24 mph    
Visibility 10 miles    
Events Rain    
Averages and records for this station are not official NWS values.
T = Trace of Precipitation, MM = Missing Value Source: NWS Daily Summary

Daily Weather History Graph

Daily Weather History Graph

Search for Another Location

Airport or City:

Trip Planner

Search our weather history database for the weather conditions in past years. The results will help you decide how hot, cold, wet, or windy it might be!

Date:

Astronomy

Oct. 19, 2012 Rise Set
Actual Time 7:39 AM PDT 6:14 PM PDT
Civil Twilight 7:07 AM PDT 6:45 PM PDT
Nautical Twilight 6:30 AM PDT 7:22 PM PDT
Astronomical Twilight 5:54 AM PDT 7:58 PM PDT
Moon 12:44 PM PDT (10/19) 9:42 PM PDT (10/19)
Length of Visible Light 11h 38m
Length of Day
10h 35m
Waxing Crescent, 24% of the Moon is Illuminated
Oct 19
Waxing Crescent
Oct 21
First Quarter
Oct 29
Full
Nov 6
Last Quarter
Nov 13
New

Hourly Weather History & Observations

Time (PDT) Temp. Windchill Dew Point Humidity Pressure Visibility Wind Dir Wind Speed Gust Speed Precip Events Conditions
12:53 AM 52.0 °F - 50.0 °F 93% 29.72 in 10.0 mi ESE 8.1 mph - N/A   Overcast
1:53 AM 52.0 °F - 50.0 °F 93% 29.71 in 10.0 mi SE 9.2 mph - N/A   Mostly Cloudy
2:53 AM 52.0 °F - 50.0 °F 93% 29.71 in 10.0 mi SE 6.9 mph - N/A   Overcast
3:53 AM 53.1 °F - 51.1 °F 93% 29.71 in 10.0 mi SSE 8.1 mph - N/A   Overcast
4:37 AM 53.6 °F - 51.8 °F 94% 29.71 in 10.0 mi SSE 6.9 mph - 0.00 in Rain Light Rain
4:53 AM 53.1 °F - 51.1 °F 93% 29.72 in 10.0 mi South 6.9 mph - 0.00 in Rain Light Rain
5:53 AM 54.0 °F - 52.0 °F 93% 29.72 in 10.0 mi South 6.9 mph - 0.00 in   Overcast
6:08 AM 53.6 °F - 51.8 °F 94% 29.72 in 10.0 mi South 9.2 mph - N/A   Overcast
6:53 AM 52.0 °F - 48.9 °F 89% 29.73 in 10.0 mi South 10.4 mph - N/A   Mostly Cloudy
7:53 AM 52.0 °F - 48.0 °F 86% 29.74 in 10.0 mi SSW 11.5 mph 18.4 mph N/A   Clear
8:53 AM 52.0 °F - 46.0 °F 80% 29.75 in 10.0 mi West 9.2 mph 18.4 mph N/A   Clear
9:53 AM 53.1 °F - 45.0 °F 74% 29.78 in 10.0 mi Variable 4.6 mph - N/A   Clear
10:53 AM 53.1 °F - 43.0 °F 69% 29.78 in 10.0 mi Variable 6.9 mph 16.1 mph N/A   Mostly Cloudy
11:53 AM 54.0 °F - 41.0 °F 62% 29.78 in 10.0 mi West 9.2 mph 24.2 mph N/A   Overcast
12:53 PM 54.0 °F - 41.0 °F 62% 29.78 in 10.0 mi West 9.2 mph 18.4 mph N/A   Mostly Cloudy
1:53 PM 53.1 °F - 41.0 °F 64% 29.80 in 10.0 mi Variable 5.8 mph 16.1 mph N/A   Overcast
2:53 PM 53.1 °F - 41.0 °F 64% 29.78 in 10.0 mi Variable 6.9 mph 18.4 mph N/A   Overcast
3:53 PM 53.1 °F - 42.1 °F 66% 29.77 in 10.0 mi SW 6.9 mph - 0.00 in   Overcast
4:53 PM 53.1 °F - 39.0 °F 59% 29.76 in 10.0 mi SW 8.1 mph 16.1 mph N/A   Scattered Clouds
5:53 PM 51.1 °F - 39.0 °F 63% 29.75 in 10.0 mi WSW 5.8 mph - N/A   Clear
6:53 PM 50.0 °F - 39.0 °F 66% 29.74 in 10.0 mi SW 8.1 mph - N/A   Clear
7:53 PM 50.0 °F - 39.0 °F 66% 29.75 in 10.0 mi SW 6.9 mph - 0.00 in   Overcast
8:53 PM 46.9 °F - 42.1 °F 83% 29.77 in 7.0 mi WSW 9.2 mph 18.4 mph 0.00 in Rain Light Rain
9:53 PM 45.0 °F 42.6 °F 42.1 °F 90% 29.75 in 10.0 mi Variable 4.6 mph - 0.01 in   Overcast
10:53 PM 45.0 °F 43.5 °F 42.1 °F 90% 29.76 in 10.0 mi Variable 3.5 mph - N/A   Overcast
11:53 PM 46.0 °F 41.0 °F 42.1 °F 86% 29.77 in 10.0 mi SW 10.4 mph 19.6 mph N/A   Partly Cloudy